This is the latest recevied weather packets stored in our database for station/object W0VI. If no packets are shown the sender has not sent any weather packets the latest 10 day(s).
| Time | Temp. | Humidity | Pressure | Rain* | Wind** | Luminosity | Snow |
|---|---|---|---|---|---|---|---|
| 1787868766 | 27.22° C | 40% | 1017.9 hPa | 0 mm | - | 265 W/m² | - |
| 1787868465 | 27.22° C | 41% | 1017.8 hPa | 0 mm | - | 265 W/m² | - |
| 1787868165 | 26.67° C | 42% | 1018 hPa | 0 mm | - | 296 W/m² | - |
| 1787867860 | 27.22° C | 41% | 1018 hPa | 0 mm | - | 305 W/m² | - |
| 1787867556 | 27.22° C | 43% | 1017.8 hPa | 0 mm | - | 319 W/m² | - |
| 1787867255 | 26.67° C | 43% | 1017.9 hPa | 0 mm | - | 336 W/m² | - |
| 1787866952 | 27.22° C | 42% | 1018 hPa | 0 mm | - | 345 W/m² | - |
| 1787866647 | 26.67° C | 44% | 1018 hPa | 0 mm | - | 364 W/m² | - |
| 1787866344 | 26.67° C | 44% | 1018 hPa | 0 mm | - | 365 W/m² | - |
| 1787866040 | 27.22° C | 43% | 1018 hPa | 0 mm | - | 363 W/m² | - |
| 1787865735 | 27.22° C | 41% | 1018.1 hPa | 0 mm | - | 385 W/m² | - |
| 1787865430 | 27.22° C | 41% | 1018 hPa | 0 mm | - | 383 W/m² | - |
| 1787865130 | 27.78° C | 42% | 1018 hPa | 0 mm | - | 391 W/m² | - |
| 1787864827 | 27.22° C | 43% | 1017.9 hPa | 0 mm | - | 405 W/m² | - |
| 1787864526 | 27.22° C | 43% | 1018 hPa | 0 mm | - | 409 W/m² | - |
| 1787864221 | 27.22° C | 42% | 1018 hPa | 0 mm | - | 409 W/m² | - |
| 1787863910 | 27.22° C | 42% | 1018.2 hPa | 0 mm | - | 414 W/m² | - |
| 1787863608 | 26.67° C | 43% | 1018.1 hPa | 0 mm | - | 450 W/m² | - |
| 1787863302 | 27.22° C | 42% | 1018.1 hPa | 0 mm | - | 456 W/m² | - |
| 1787862998 | 26.67° C | 45% | 1018.2 hPa | 0 mm | - | 453 W/m² | - |
| 1787862693 | 26.67° C | 43% | 1018.2 hPa | 0 mm | - | 466 W/m² | - |
| 1787862389 | 26.67° C | 44% | 1018 hPa | 0 mm | - | 461 W/m² | - |
| 1787862084 | 26.67° C | 43% | 1018.2 hPa | 0 mm | - | 462 W/m² | - |
| 1787861784 | 26.67° C | 43% | 1018.2 hPa | 0 mm | - | 458 W/m² | - |
| 1787861482 | 27.22° C | 45% | 1018.2 hPa | 0 mm | - | 468 W/m² | - |
* Rain latest hour (hover to see other rain measurements)
** Current wind speed in m/s (hover to see current wind gust speed)